Skip Page Navigation
NASA JPL Caltech
NASA Logo - Jet Propulsion Laboratory + View the NASA Portal
+ Near-Earth Object (NEO) Program
Search JPL
JPL Home Earth Solar System Stars & Galaxies Technology
JPL Solar System Dynamics
BODIES ORBITS EPHEMERIDES TOOLS PHYSICAL DATA DISCOVERY FAQ SITE MAP
JPL Small-Body Database Browser
Search: [ help ]  
27095 Girardiwanda (1998 UE23)
Classification: Main-belt Asteroid          SPK-ID: 2027095
Ephemeris | Orbit Diagram | Orbital Elements | Physical Parameters | Discovery Circumstances ]

[ show orbit diagram ]
Orbital Elements at Epoch 2456800.5 (2014-May-23.0) TDB
Reference: JPL 6 (heliocentric ecliptic J2000)
 Element Value Uncertainty (1-sigma)   Units 
e .1683815981002857 8.1942e-08  
a 2.171544901971971 1.8489e-08 AU
q 1.805896701031403 1.7936e-07 AU
i 5.06093407810264 8.6236e-06 deg
node 349.3664357026225 6.6025e-05 deg
peri 12.91574986164426 6.9783e-05 deg
M 341.5233440126158 3.337e-05 deg
tp 2456860.489123951978
(2014-Jul-21.98912395)
0.000109 JED
period 1168.830801280154
3.20
1.4928e-05
4.087e-08
d
yr
n .3080000968538067 3.9336e-09 deg/d
Q 2.53719310291254 2.1602e-08 AU
  Orbit Determination Parameters
   # obs. used (total)      707  
   data-arc span      23222 days (63.58 yr)  
   first obs. used      1950-12-09  
   last obs. used      2014-07-08  
   planetary ephem.      DE431  
   SB-pert. ephem.      SB431-BIG16  
   condition code      0  
   fit RMS      .56119  
   data source      ORB  
   producer      Otto Matic  
   solution date      2014-Jul-14 12:56:31  

Additional Information
 Earth MOID = .801961 AU 
 T_jup = 3.665 
[ show covariance matrix ]

Ephemeris | Orbit Diagram | Orbital Elements | Physical Parameters | Discovery Circumstances ]

Physical Parameter Table
Parameter Symbol Value Units Sigma Reference Notes
absolute magnitude H 14.8 mag n/a MPO266094  

27095 Girardiwanda           Discovered 1998 Oct. 25 by U. Munari and F. Castellani at Cima Ekar Observatory.
Girardi Wanda (b. 1931) was born in Verona. A poet and journalist, she published eight collections of poems and is represented in four anthologies. As a journalist she published more than 400 articles on culture and history. She won 61 poetry contests and was honored in another 160.
NOTE: some special characters may not display properly (any characters within {} are an attempt to place the proper accent above a character)
Reference: 20030910/MPCPages.arcLast Updated: 2003-10-02

Alternate Designations
 1998 UE23 = 1985 SP4 = 2000 EK69 
Ephemeris | Orbit Diagram | Orbital Elements | Physical Parameters | Discovery Circumstances ]
ABOUT SSD CREDITS/AWARDS PRIVACY/COPYRIGHT GLOSSARY LINKS
FirstGov 2014-Jul-31 19:37 UT
(server date/time)  
NASA Home Page
Site Manager:   Donald K. Yeomans
Webmaster  Alan B. Chamberlin